CZ-6A DEB

Satellite information

Favourite Embed

Satellite Type and Status

DEBRISIN ORBIT

Key statistics

Satellite CZ-6A DEB at a glance.

Uptime

494

Days in orbit

Revolutions

≈ 14.3

Per day

Orbit

LEO

Low Earth Orbit

Inclination

88.5

Latest

Satellite identification and parameters

Extended collection of information and parameters for CZ-6A DEB.

Object identification

Identified? True

Debris? True

Object name: CZ-6A DEB

International designator: 2024-140QZ

Object number (NORAD): 61155

Object ID (CCSDS): 61155

Country: PEOPLES REPUBLIC OF CHINA (PRC)

Current information (Y/N): Y

RCS size: SMALL

Orbital parameters

Period: 101.045 minutes

Inclination: 88.4944 deg

SMA: 7186.267 km

Apoapsis: 883.516 km

Periapsis: 732.749 km

RAAN: 266.3073 deg

Eccentricy: 0.01048995

Argument of periapsis: 356.748 deg

Mean anomaly: 3.3017 deg

Mean motion: 14.25107786 rev/day

Mean motion (dot): 0.00007127 rev/day2

B* drag term: 0.00286328 1/REarth

Two-line elements (TLE)

Creation date: Dec. 12, 2025, 10:14 a.m.

Reference frame: TEME

Reference center: EARTH

Epoch: Dec. 12, 2025, 5:24 a.m. UTC

TLE line 0: 0 CZ-6A DEB

TLE line 1: 1 61155U 24140QZ 25346.22564056 .00007127 00000-0 28633-2 0 9990

TLE line 2: 2 61155 88.4944 266.3073 0104900 356.7480 3.3017 14.25107786 67908

Live tracking on map

Real-time ground track for satellite CZ-6A DEB.

In-orbit conjunctions

A list of the most updated potential collisions computed for object CZ-6A DEB.

Target Orbit TCA Probability of collision Miss distance Type
NOAA 16 DEB SSO 2025-10-30 05:07:20 0.0001867295 83.0 (m) DEBRIS
IRS P2 R/B SSO 2025-02-01 17:36:37 0.0002943402 201.0 (m) ROCKET BODY
NOAA 16 DEB SSO 2025-01-31 20:22:04 0.0001225265 818.0 (m) DEBRIS
SSU 3 LEO 2025-01-09 00:28:54 0.0001525751 552.0 (m) PAYLOAD
COSMOS 2251 DEB LEO 2024-12-10 21:21:19 0.0005440141 231.0 (m) DEBRIS

Associated space launch

18 Low Earth Orbit communication satellites with Ku, Q and V band payloads for the G60 constellation operated by Shanghai Spacecom Satellite Technology (SSST) with funding backed by the Shanghai local government. Initial constellation will consist of 1296 satellites by 2027 with long term plans to expand it to 12000 satellites.

CZ-6A DEB was lifted into orbit during the mission ‘Long March 6A | G60 Polar Group 01’, on board a Long March 6A space rocket.

The launch took place on Aug. 6, 2024, 6:42 a.m. from Launch Complex 9A.

For more information about the launch, click the button.

Launch to space Long March 6A | G60 Polar Group 01
Long March 6A | G60 Polar Group 01

Agency: N/A

Status: Launch Successful

Launch date: Aug. 6, 2024, 6:42 a.m. UTC

Rocket: Long March 6A

Launch pad: Launch Complex 9A

Location: Taiyuan Satellite Launch Center, People's Republic of China

...

Latest news about this satellite

News about space launch
Brightness of first Chinese broadband constellation satellites alarms astronomers

The first satellites of a Chinese broadband constellation are significantly brighter than those of Western systems, posing a new challenge for astronomers.

News about space launch
Chinese rocket stage breaks up into cloud of more than 700 pieces of space debris

HELSINKI — A Chinese Long March 6A rocket’s upper stage has fragmented into a cloud of over 700 pieces of space debris, adding to concerns about long-term orbital safety. China […]

News about space launch
China's Thousand Sails Megaconstellation Kicks Off with Dangerous Debris Field

China's Thousand Sails Megaconstellation Kicks Off with Dangerous Debris Field


Newsletter sign-up

Weekly statistics, charts and insights to help you stay on top of the space industry.